Torna al catalogo

COSMOS 2443

GLONASS

AttivoNavigazioneMEO
NORAD 33379·PAYLOAD·🇷🇺 Russia

Lanciato Sep 25, 2008 da Baikonur Cosmodrome

Loading…

Prossimi Passaggi (prossime 24 ore)

TLE

AggiornatoSource: Space-Track

Epoca: Sep 11, 2026, 22:27 UTC

1 33379U 08046B   26254.93580013 -.00000042  00000-0  00000-0 0  9998
2 33379  65.4201 312.0474 0016748 182.5410 176.4611  2.13099665139799

Traccia COSMOS 2443 in tempo reale con AllMySat

Download on the App Store